Lid_Strength_Index
4 3 2 2 1 1 2 6 10 3 3 9 10 12 10 8 9 8 9 9 11 13 12 13 13 13 10 7 8 10 10 12 15 12 9 8 10 12 12 16 18 17 18 18
4 3 2 1 0 1 3 7 8 4 4 12 12 9 10 9 9 10 10 11 10 10 13 15 12 11 8 7 8 10 10 14 16 14 11 10 12 11 12 11 13 17 19 17
4 3 2 1 1 1 4 6 10 9 8 7 10 11 11 11 8 9 9 10 9 11 13 11 13 12 8 7 7 6 7 12 14 16 13 12 12 11 10 12 16 16 15 15
3 2 2 0 1 1 5 7 11 8 12 11 10 10 11 12 12 8 8 10 10 12 14 13 13 11 10 8 7 8 9 15 13 12 11 11 11 11 10 11 12 15 14 14
3 2 1 0 0 1 6 8 9 8 9 10 11 10 11 12 11 10 11 12 10 10 13 12 14 12 12 11 9 10 10 15 13 15 12 11 13 12 12 12 12 12 13 14
3 2 1 0 0 2 7 5 5 8 10 11 11 12 11 11 9 9 8 9 10 11 10 8 10 9 9 9 11 11 12 13 15 17 13 13 16 13 13 12 11 12 15 12
3 2 1 0 0 1 4 5 6 8 12 11 11 9 9 10 9 11 8 8 10 8 6 7 8 8 9 9 9 9 12 13 14 17 15 20 13 10 10 11 10 10 10 10
3 2 1 0 0 0 3 6 6 8 11 10 10 9 9 9 8 9 9 8 7 7 9 11 13 13 12 11 10 10 10 12 16 18 18 15 12 10 11 11 12 9 10 9
3 2 1 0 0 0 3 5 5 7 10 10 8 9 8 10 10 10 8 7 5 7 10 12 16 18 15 15 13 9 10 10 14 16 19 20 13 9 7 8 15 8 8 8
3 2 1 0 0 0 1 5 6 5 9 8 8 9 9 7 8 10 9 9 8 7 12 14 16 16 12 16 16 15 14 14 16 16 17 15 9 8 7 15 14 8 7 7
3 2 1 0 0 -0 1 4 3 5 7 7 6 6 7 7 8 11 9 10 10 10 13 14 14 15 13 14 12 14 15 16 16 15 17 19 8 8 12 10 8 7 6 7
3 2 1 1 0 0 0 6 4 4 6 7 6 5 5 4 5 8 8 9 10 9 12 11 11 13 12 13 17 10 15 12 14 14 14 9 7 8 7 7 8 8 8 8
3 2 1 1 0 -0 0 4 4 4 7 7 7 7 4 3 4 5 9 9 8 8 6 9 10 13 11 15 14 12 10 8 11 11 9 9 9 8 7 7 8 7 7 7
2 1 1 1 -0 -0 0 4 4 5 7 9 8 4 6 3 4 4 5 6 7 6 7 9 10 12 9 12 11 11 10 9 10 11 9 9 8 8 8 7 7 8 7 8
1 1 1 0 -0 -0 1 3 3 4 6 9 9 6 5 5 5 5 5 6 8 9 10 11 12 10 11 11 11 11 9 10 12 12 9 9 9 8 7 8 8 8 8 9
1 1 1 0 0 0 4 6 4 4 5 6 10 6 6 4 5 5 6 6 8 9 10 11 10 8 10 13 14 9 8 8 8 9 7 7 7 6 6 8 8 7 8 9
1 1 0 0 1 4 6 7 5 3 5 7 10 9 6 5 5 6 7 7 8 9 10 10 9 9 9 10 12 9 8 7 7 6 6 8 7 8 7 7 8 8 9 9
1 1 0 0 0 2 4 3 2 3 6 6 11 10 8 5 8 9 7 8 9 9 10 9 10 9 9 12 8 7 7 7 7 7 7 8 8 8 9 8 9 10 11 11
1 0 -0 2 4 6 5 0 0 4 5 9 8 11 12 6 8 8 8 9 11 9 11 10 9 11 12 9 9 8 7 8 9 8 8 8 9 9 10 10 10 11 12 12
1 2 5 8 5 0 1 4 6 6 6 7 9 7 10 7 9 10 9 9 11 13 11 9 10 11 7 7 7 9 8 8 9 10 11 10 10 11 11 11 11 11 12 12
5 7 7 5 1 4 6 9 9 9 10 8 8 8 9 7 10 10 9 12 11 14 12 11 12 12 8 8 9 8 8 8 9 10 10 11 11 11 12 12 11 12 12 13
5 4 4 5 6 7 9 11 8 10 11 8 9 8 8 7 7 10 9 11 10 14 10 12 13 9 9 8 9 8 8 9 10 10 11 11 11 11 12 12 13 13 13 13
2 4 5 7 8 13 12 13 10 11 9 8 8 10 8 8 8 9 10 12 13 9 12 13 11 8 9 9 8 8 8 8 9 10 10 10 11 11 12 13 12 12 13 13
6 8 14 10 11 10 11 11 9 7 7 7 6 9 9 8 10 10 12 10 10 14 14 13 10 9 9 8 7 7 8 9 9 10 10 11 11 12 12 12 12 13 14 14
7 8 11 10 8 8 8 8 8 6 7 6 8 8 9 10 10 9 11 12 14 13 13 10 8 9 8 8 8 8 9 9 10 10 11 11 12 13 13 12 12 13 14 15
6 7 10 7 8 8 8 7 9 7 8 6 7 9 10 11 10 11 13 13 14 12 9 7 9 9 8 8 8 8 9 10 11 11 11 12 13 14 14 14 15 15 15 15
7 9 7 8 8 8 8 7 7 6 7 9 9 12 12 9 12 13 10 12 10 8 7 6 8 8 8 8 8 8 9 10 11 11 12 12 13 13 14 15 15 14 14 14